GEFSCGP_prec_meanprecacc_276.txt.gz
Total_Precipitation_Accumulation
0.84 1.40 1.73 1.61 1.57 1.53 1.34 1.30 1.18 0.99 0.95 0.98 0.89 0.87 0.91 0.89 0.87 0.75 0.61 0.50 0.50 0.48 0.46 0.43 0.38 0.39 0.44 0.47 0.52 0.61 0.69 0.87 0.98 1.03 1.15 1.34 1.51 1.67 1.82 1.90 1.78 1.62 1.60 1.78
0.92 1.24 0.96 0.88 1.02 1.07 1.16 1.20 1.06 0.90 0.76 0.77 0.78 0.79 0.81 0.76 0.74 0.63 0.52 0.44 0.37 0.31 0.31 0.29 0.26 0.28 0.29 0.31 0.36 0.45 0.54 0.62 0.76 0.93 1.18 1.38 1.67 1.74 1.81 1.94 1.98 1.89 1.83 2.01
0.99 0.90 0.62 0.71 0.90 0.94 0.97 1.03 0.94 0.87 0.74 0.67 0.66 0.83 0.78 0.72 0.67 0.58 0.46 0.38 0.30 0.23 0.20 0.16 0.17 0.20 0.24 0.24 0.25 0.34 0.46 0.59 0.82 1.05 1.39 1.68 1.96 2.04 2.08 2.02 2.05 2.10 2.14 2.22
0.92 0.67 0.60 0.74 0.80 0.83 0.94 0.69 0.63 0.64 0.77 0.79 0.66 0.97 0.71 0.59 0.58 0.52 0.44 0.40 0.33 0.24 0.19 0.16 0.17 0.18 0.20 0.23 0.29 0.41 0.59 0.79 1.06 1.38 1.76 2.04 2.30 2.42 2.26 2.20 2.19 2.17 2.13 2.17
0.79 0.64 0.61 0.72 0.59 0.55 0.65 0.54 0.62 0.65 0.70 0.64 0.47 0.66 0.62 0.48 0.53 0.45 0.38 0.38 0.37 0.31 0.24 0.21 0.23 0.24 0.29 0.38 0.46 0.64 0.90 1.20 1.47 1.70 1.90 2.14 2.29 2.30 2.25 2.18 2.17 2.09 2.05 2.03
0.57 0.50 0.53 0.51 0.45 0.45 0.48 0.56 0.70 0.71 0.76 0.80 0.42 0.51 0.63 0.48 0.44 0.40 0.37 0.34 0.30 0.29 0.29 0.29 0.31 0.39 0.47 0.55 0.70 0.88 1.08 1.38 1.57 1.70 1.80 1.96 2.12 2.17 2.17 2.15 2.16 2.16 2.13 2.02
0.52 0.44 0.37 0.33 0.40 0.42 0.47 0.79 1.13 1.16 1.11 0.82 0.38 0.54 0.64 0.47 0.37 0.32 0.33 0.32 0.30 0.34 0.39 0.40 0.50 0.64 0.71 0.76 0.87 1.04 1.14 1.33 1.44 1.49 1.59 1.72 1.79 1.83 1.86 1.86 1.85 1.78 1.75 1.75
0.52 0.51 0.34 0.29 0.37 0.42 0.42 0.65 1.11 1.21 1.04 0.74 0.51 0.76 0.69 0.44 0.36 0.33 0.33 0.31 0.34 0.46 0.56 0.66 0.80 0.89 0.96 0.99 0.97 1.03 1.17 1.21 1.20 1.25 1.25 1.36 1.45 1.51 1.55 1.52 1.52 1.57 1.61 1.64
0.43 0.43 0.26 0.22 0.25 0.33 0.41 0.45 0.52 0.76 0.71 0.75 0.69 0.84 0.77 0.46 0.39 0.35 0.34 0.36 0.43 0.59 0.80 1.03 1.20 1.30 1.38 1.32 1.16 1.04 1.04 1.02 1.01 1.11 1.17 1.22 1.28 1.31 1.32 1.33 1.27 1.37 1.42 1.42
0.34 0.42 0.32 0.23 0.25 0.28 0.34 0.45 0.58 0.87 1.07 1.04 0.90 0.98 0.94 0.66 0.54 0.45 0.46 0.56 0.71 0.93 1.23 1.50 1.73 1.85 1.83 1.64 1.39 1.14 0.98 0.93 0.90 0.97 1.07 1.16 1.16 1.16 1.13 1.15 1.07 1.13 1.23 1.22
0.27 0.40 0.35 0.28 0.30 0.34 0.37 0.53 0.67 0.86 0.92 1.18 1.32 1.27 0.99 0.88 0.78 0.75 0.81 0.98 1.19 1.46 1.66 1.82 1.99 2.04 1.78 1.60 1.37 1.11 0.96 0.97 0.99 1.03 1.07 1.10 1.06 1.03 1.01 0.97 0.92 0.96 1.04 1.03
0.23 0.35 0.40 0.25 0.22 0.27 0.46 0.68 0.90 1.27 1.17 1.08 1.32 1.34 0.94 0.87 0.91 0.96 1.07 1.13 1.24 1.41 1.43 1.52 1.60 1.57 1.53 1.48 1.30 1.14 1.05 1.04 1.09 1.12 1.16 1.11 1.04 0.98 0.97 0.93 0.84 0.83 0.79 0.77
0.33 0.51 0.57 0.49 0.51 0.51 0.58 0.61 0.69 0.88 1.01 1.08 1.35 1.41 0.91 0.83 0.83 0.98 1.16 1.22 1.29 1.33 1.25 1.24 1.26 1.33 1.36 1.32 1.20 1.17 1.14 1.16 1.16 1.15 1.07 1.01 0.95 0.87 0.83 0.73 0.66 0.73 0.73 0.79
0.31 0.52 0.64 0.74 0.69 0.61 0.67 0.62 0.56 0.69 1.01 1.05 1.20 1.17 0.96 0.88 0.84 0.93 1.07 1.16 1.12 1.05 0.99 0.99 1.06 1.15 1.21 1.19 1.15 1.10 1.06 1.10 1.20 1.27 1.19 1.09 0.98 0.89 0.85 0.75 0.66 0.64 0.67 0.75
0.23 0.29 0.29 0.28 0.27 0.36 0.56 0.66 0.64 0.63 0.70 0.93 0.93 0.83 0.78 0.74 0.76 0.77 0.81 0.79 0.71 0.66 0.67 0.72 0.78 0.79 0.76 0.72 0.77 0.82 0.88 0.98 1.13 1.27 1.26 1.13 0.96 0.86 0.81 0.78 0.69 0.66 0.66 0.66
0.16 0.18 0.17 0.17 0.16 0.25 0.40 0.50 0.51 0.49 0.49 0.59 0.66 0.64 0.54 0.51 0.55 0.56 0.58 0.54 0.50 0.46 0.43 0.42 0.44 0.44 0.43 0.40 0.39 0.42 0.50 0.65 0.88 1.14 1.12 0.93 0.77 0.64 0.60 0.63 0.65 0.65 0.62 0.65
0.12 0.15 0.20 0.20 0.15 0.22 0.44 0.44 0.41 0.43 0.36 0.37 0.43 0.42 0.38 0.41 0.47 0.48 0.53 0.55 0.42 0.34 0.32 0.31 0.31 0.31 0.30 0.30 0.29 0.32 0.39 0.51 0.68 0.79 0.78 0.68 0.58 0.55 0.59 0.62 0.57 0.59 0.62 0.62
0.11 0.14 0.21 0.24 0.25 0.52 0.71 0.59 0.50 0.46 0.28 0.22 0.23 0.25 0.28 0.38 0.42 0.43 0.42 0.43 0.42 0.31 0.23 0.22 0.22 0.22 0.26 0.28 0.31 0.35 0.41 0.46 0.50 0.53 0.55 0.50 0.48 0.49 0.53 0.55 0.55 0.62 0.68 0.66
0.14 0.23 0.31 0.36 0.42 0.60 0.65 0.56 0.55 0.54 0.39 0.20 0.17 0.18 0.17 0.17 0.19 0.23 0.24 0.24 0.23 0.20 0.16 0.15 0.14 0.14 0.16 0.16 0.17 0.19 0.21 0.23 0.24 0.23 0.24 0.26 0.26 0.29 0.31 0.33 0.40 0.52 0.59 0.62
0.17 0.24 0.36 0.40 0.49 0.61 0.48 0.30 0.31 0.45 0.56 0.19 0.12 0.12 0.11 0.10 0.15 0.17 0.18 0.19 0.17 0.14 0.15 0.14 0.11 0.12 0.13 0.13 0.13 0.11 0.12 0.12 0.13 0.13 0.14 0.17 0.19 0.19 0.18 0.22 0.27 0.33 0.34 0.41
0.18 0.25 0.31 0.37 0.56 0.74 0.54 0.32 0.29 0.52 0.56 0.17 0.10 0.09 0.10 0.12 0.12 0.13 0.15 0.17 0.15 0.13 0.14 0.15 0.13 0.12 0.13 0.14 0.13 0.12 0.12 0.12 0.14 0.17 0.20 0.21 0.20 0.21 0.22 0.24 0.26 0.28 0.29 0.33
0.21 0.29 0.33 0.46 0.76 0.95 0.72 0.49 0.45 0.37 0.18 0.10 0.07 0.07 0.09 0.10 0.10 0.12 0.14 0.15 0.14 0.13 0.13 0.15 0.14 0.14 0.15 0.14 0.13 0.14 0.14 0.15 0.15 0.17 0.19 0.21 0.23 0.23 0.24 0.25 0.29 0.31 0.32 0.31
0.18 0.21 0.28 0.42 0.65 0.67 0.59 0.46 0.34 0.25 0.14 0.07 0.06 0.08 0.11 0.12 0.12 0.15 0.16 0.14 0.14 0.14 0.13 0.13 0.14 0.14 0.14 0.14 0.13 0.13 0.15 0.16 0.17 0.18 0.18 0.21 0.23 0.23 0.21 0.24 0.28 0.30 0.32 0.33
0.17 0.15 0.18 0.20 0.27 0.28 0.29 0.27 0.20 0.16 0.12 0.07 0.08 0.11 0.14 0.16 0.16 0.14 0.14 0.14 0.12 0.12 0.12 0.12 0.13 0.14 0.15 0.16 0.16 0.17 0.17 0.17 0.16 0.18 0.20 0.21 0.21 0.21 0.21 0.23 0.26 0.28 0.31 0.34
0.16 0.17 0.20 0.20 0.16 0.14 0.16 0.17 0.15 0.12 0.09 0.08 0.09 0.12 0.13 0.14 0.14 0.12 0.11 0.13 0.13 0.12 0.13 0.15 0.16 0.15 0.16 0.18 0.19 0.23 0.23 0.20 0.18 0.18 0.19 0.19 0.19 0.20 0.21 0.22 0.24 0.24 0.26 0.33
0.12 0.16 0.20 0.22 0.16 0.16 0.16 0.15 0.12 0.11 0.08 0.07 0.07 0.09 0.10 0.11 0.12 0.12 0.11 0.11 0.13 0.14 0.14 0.16 0.18 0.18 0.17 0.18 0.20 0.22 0.25 0.26 0.26 0.23 0.21 0.19 0.19 0.20 0.21 0.22 0.23 0.25 0.26 0.32

GEFSCGP_prec_meanprecacc_282.txt.gz
Total_Precipitation_Accumulation
0.84 1.41 1.74 1.61 1.58 1.54 1.35 1.32 1.20 1.00 0.96 1.00 0.90 0.88 0.93 0.92 0.89 0.77 0.64 0.52 0.50 0.49 0.46 0.44 0.40 0.41 0.46 0.50 0.54 0.62 0.70 0.88 0.98 1.03 1.16 1.36 1.52 1.69 1.84 1.91 1.79 1.63 1.62 1.79
0.93 1.25 0.97 0.89 1.03 1.09 1.19 1.22 1.07 0.91 0.77 0.78 0.79 0.81 0.82 0.77 0.75 0.65 0.53 0.46 0.38 0.32 0.32 0.31 0.28 0.30 0.32 0.33 0.38 0.46 0.55 0.62 0.76 0.93 1.19 1.39 1.69 1.76 1.83 1.95 2.00 1.91 1.85 2.02
1.01 0.91 0.63 0.72 0.91 0.96 0.98 1.04 0.95 0.88 0.76 0.69 0.68 0.84 0.80 0.72 0.67 0.59 0.46 0.38 0.30 0.24 0.21 0.17 0.18 0.22 0.28 0.27 0.29 0.37 0.48 0.60 0.83 1.06 1.39 1.68 1.96 2.05 2.09 2.02 2.07 2.12 2.16 2.23
0.95 0.70 0.62 0.75 0.81 0.84 0.96 0.70 0.64 0.65 0.81 0.83 0.69 1.00 0.73 0.60 0.58 0.52 0.44 0.41 0.33 0.25 0.19 0.16 0.17 0.19 0.21 0.25 0.31 0.43 0.62 0.81 1.07 1.39 1.78 2.06 2.31 2.43 2.27 2.22 2.21 2.19 2.14 2.19
0.81 0.64 0.62 0.72 0.60 0.56 0.65 0.55 0.63 0.66 0.72 0.66 0.50 0.69 0.64 0.50 0.54 0.46 0.39 0.39 0.38 0.31 0.24 0.22 0.23 0.25 0.31 0.39 0.48 0.65 0.91 1.21 1.47 1.71 1.91 2.15 2.30 2.31 2.26 2.21 2.20 2.11 2.06 2.05
0.58 0.51 0.54 0.52 0.45 0.45 0.48 0.57 0.70 0.72 0.77 0.82 0.43 0.53 0.65 0.50 0.45 0.41 0.37 0.35 0.31 0.29 0.29 0.30 0.32 0.40 0.48 0.57 0.73 0.91 1.09 1.39 1.58 1.70 1.81 1.97 2.13 2.18 2.18 2.17 2.19 2.18 2.14 2.04
0.52 0.45 0.37 0.33 0.41 0.42 0.47 0.80 1.14 1.17 1.12 0.84 0.40 0.57 0.67 0.49 0.38 0.33 0.34 0.33 0.30 0.35 0.39 0.41 0.51 0.66 0.73 0.78 0.90 1.06 1.14 1.34 1.44 1.50 1.60 1.73 1.80 1.84 1.87 1.87 1.87 1.80 1.76 1.76
0.53 0.52 0.35 0.30 0.38 0.43 0.43 0.67 1.13 1.24 1.08 0.77 0.53 0.80 0.71 0.46 0.37 0.35 0.35 0.32 0.36 0.48 0.58 0.68 0.82 0.91 0.98 1.01 0.99 1.04 1.18 1.21 1.21 1.26 1.26 1.37 1.46 1.52 1.56 1.53 1.53 1.58 1.62 1.64
0.43 0.44 0.29 0.24 0.26 0.35 0.44 0.47 0.54 0.79 0.75 0.79 0.73 0.89 0.80 0.47 0.40 0.37 0.37 0.37 0.44 0.62 0.83 1.05 1.23 1.32 1.40 1.34 1.18 1.06 1.06 1.03 1.01 1.12 1.19 1.22 1.28 1.33 1.34 1.34 1.27 1.38 1.42 1.42
0.35 0.43 0.33 0.24 0.26 0.29 0.36 0.47 0.61 0.92 1.10 1.06 0.94 1.05 1.01 0.68 0.55 0.46 0.47 0.57 0.72 0.94 1.25 1.52 1.75 1.86 1.85 1.67 1.44 1.21 1.03 0.94 0.91 0.98 1.08 1.17 1.18 1.18 1.14 1.16 1.08 1.13 1.24 1.23
0.28 0.42 0.37 0.30 0.31 0.35 0.38 0.55 0.70 0.90 0.94 1.20 1.36 1.32 1.02 0.91 0.80 0.76 0.82 0.99 1.20 1.47 1.68 1.85 2.01 2.06 1.82 1.65 1.40 1.15 0.99 0.99 1.00 1.04 1.08 1.12 1.08 1.05 1.02 0.98 0.93 0.97 1.06 1.07
0.24 0.38 0.42 0.26 0.23 0.28 0.48 0.70 0.92 1.29 1.18 1.10 1.34 1.37 0.96 0.89 0.93 0.97 1.08 1.14 1.26 1.42 1.44 1.54 1.63 1.59 1.56 1.53 1.35 1.17 1.07 1.07 1.10 1.13 1.18 1.13 1.05 1.00 0.98 0.95 0.86 0.84 0.80 0.80
0.35 0.54 0.59 0.51 0.52 0.53 0.61 0.63 0.70 0.90 1.02 1.09 1.37 1.42 0.92 0.84 0.84 0.99 1.16 1.22 1.30 1.33 1.25 1.24 1.27 1.35 1.38 1.36 1.25 1.22 1.18 1.19 1.20 1.18 1.10 1.03 0.97 0.88 0.85 0.75 0.68 0.74 0.74 0.80
0.34 0.56 0.66 0.76 0.71 0.63 0.68 0.64 0.58 0.70 1.02 1.06 1.21 1.18 0.97 0.93 0.88 0.94 1.08 1.16 1.13 1.06 1.00 0.99 1.07 1.16 1.24 1.23 1.19 1.14 1.09 1.14 1.24 1.30 1.22 1.11 1.00 0.91 0.87 0.77 0.68 0.65 0.68 0.76
0.25 0.32 0.31 0.29 0.28 0.36 0.57 0.67 0.65 0.64 0.71 0.94 0.93 0.84 0.80 0.80 0.82 0.79 0.82 0.80 0.72 0.66 0.67 0.72 0.78 0.80 0.78 0.75 0.81 0.84 0.91 1.02 1.17 1.31 1.29 1.16 1.00 0.89 0.84 0.80 0.71 0.68 0.67 0.68
0.18 0.21 0.19 0.17 0.16 0.25 0.40 0.50 0.52 0.50 0.51 0.60 0.66 0.65 0.55 0.53 0.56 0.57 0.59 0.55 0.51 0.46 0.43 0.43 0.45 0.45 0.44 0.41 0.40 0.43 0.51 0.67 0.91 1.17 1.16 0.96 0.79 0.67 0.62 0.64 0.66 0.66 0.63 0.66
0.13 0.17 0.22 0.21 0.15 0.22 0.44 0.44 0.42 0.43 0.36 0.38 0.44 0.43 0.39 0.42 0.48 0.49 0.54 0.56 0.44 0.35 0.33 0.32 0.31 0.31 0.30 0.30 0.30 0.32 0.40 0.52 0.70 0.82 0.80 0.70 0.60 0.57 0.60 0.63 0.59 0.60 0.62 0.63
0.13 0.17 0.23 0.25 0.27 0.53 0.72 0.60 0.50 0.47 0.29 0.23 0.25 0.26 0.30 0.40 0.43 0.44 0.43 0.44 0.44 0.33 0.24 0.23 0.23 0.24 0.28 0.29 0.32 0.36 0.42 0.47 0.52 0.55 0.57 0.52 0.50 0.51 0.55 0.57 0.56 0.63 0.69 0.67
0.16 0.25 0.33 0.37 0.44 0.63 0.67 0.58 0.57 0.56 0.41 0.22 0.19 0.19 0.18 0.19 0.21 0.24 0.25 0.24 0.24 0.20 0.17 0.15 0.15 0.15 0.18 0.18 0.19 0.20 0.23 0.25 0.26 0.25 0.26 0.27 0.28 0.31 0.33 0.34 0.41 0.53 0.60 0.63
0.18 0.25 0.38 0.42 0.51 0.63 0.50 0.32 0.33 0.48 0.59 0.21 0.14 0.14 0.13 0.11 0.16 0.18 0.20 0.20 0.17 0.14 0.15 0.15 0.13 0.14 0.15 0.15 0.15 0.13 0.14 0.14 0.15 0.15 0.15 0.18 0.20 0.20 0.19 0.23 0.28 0.34 0.35 0.42
0.19 0.26 0.32 0.39 0.58 0.76 0.56 0.34 0.30 0.55 0.59 0.20 0.12 0.11 0.11 0.13 0.13 0.13 0.16 0.18 0.15 0.14 0.14 0.16 0.15 0.15 0.16 0.17 0.15 0.14 0.14 0.14 0.15 0.19 0.21 0.21 0.21 0.21 0.22 0.25 0.27 0.29 0.30 0.35
0.22 0.30 0.35 0.48 0.78 0.97 0.74 0.51 0.47 0.41 0.21 0.13 0.09 0.09 0.11 0.11 0.11 0.13 0.15 0.16 0.15 0.13 0.14 0.15 0.15 0.17 0.18 0.17 0.15 0.15 0.15 0.15 0.16 0.19 0.20 0.22 0.23 0.24 0.25 0.26 0.30 0.33 0.34 0.34
0.19 0.22 0.29 0.44 0.68 0.70 0.60 0.48 0.36 0.28 0.17 0.09 0.08 0.10 0.13 0.13 0.13 0.16 0.17 0.15 0.15 0.14 0.13 0.13 0.14 0.14 0.15 0.15 0.14 0.14 0.16 0.17 0.17 0.19 0.20 0.22 0.24 0.23 0.22 0.25 0.30 0.33 0.35 0.36
0.18 0.16 0.20 0.23 0.30 0.31 0.30 0.28 0.21 0.17 0.14 0.09 0.10 0.13 0.17 0.18 0.17 0.15 0.16 0.16 0.14 0.14 0.13 0.12 0.14 0.15 0.16 0.17 0.16 0.18 0.17 0.17 0.17 0.19 0.21 0.22 0.22 0.22 0.23 0.25 0.29 0.32 0.35 0.38
0.18 0.18 0.20 0.21 0.19 0.17 0.17 0.18 0.16 0.12 0.10 0.09 0.11 0.15 0.17 0.17 0.18 0.16 0.15 0.17 0.16 0.14 0.14 0.16 0.17 0.16 0.16 0.18 0.20 0.23 0.24 0.21 0.18 0.19 0.21 0.20 0.21 0.22 0.24 0.26 0.28 0.30 0.31 0.38
0.13 0.16 0.21 0.22 0.17 0.17 0.19 0.16 0.13 0.11 0.09 0.08 0.09 0.11 0.13 0.14 0.16 0.15 0.13 0.13 0.15 0.16 0.15 0.17 0.18 0.18 0.18 0.18 0.20 0.22 0.25 0.27 0.27 0.25 0.22 0.21 0.21 0.23 0.24 0.26 0.26 0.29 0.31 0.36

GEFSCGP_prec_meanprecacc_288.txt.gz
Total_Precipitation_Accumulation
0.85 1.42 1.75 1.62 1.59 1.55 1.36 1.33 1.20 1.01 0.97 1.02 0.91 0.89 0.93 0.92 0.90 0.78 0.66 0.53 0.51 0.50 0.48 0.46 0.42 0.44 0.49 0.54 0.58 0.66 0.73 0.90 0.99 1.04 1.17 1.37 1.54 1.71 1.86 1.93 1.80 1.65 1.63 1.80
0.94 1.26 0.98 0.89 1.03 1.10 1.19 1.22 1.08 0.91 0.78 0.80 0.80 0.82 0.83 0.78 0.77 0.66 0.55 0.47 0.39 0.33 0.33 0.32 0.29 0.32 0.34 0.36 0.40 0.49 0.57 0.64 0.77 0.94 1.20 1.40 1.69 1.77 1.84 1.96 2.01 1.93 1.86 2.03
1.02 0.91 0.63 0.73 0.91 0.96 0.98 1.05 0.96 0.89 0.77 0.70 0.69 0.85 0.80 0.73 0.68 0.60 0.47 0.39 0.31 0.25 0.21 0.18 0.18 0.23 0.29 0.28 0.30 0.39 0.51 0.63 0.85 1.07 1.40 1.69 1.97 2.06 2.11 2.05 2.09 2.14 2.18 2.25
0.95 0.70 0.62 0.76 0.82 0.85 0.96 0.71 0.65 0.66 0.82 0.84 0.71 1.01 0.74 0.60 0.59 0.53 0.45 0.41 0.33 0.25 0.20 0.17 0.17 0.19 0.22 0.26 0.32 0.45 0.64 0.85 1.10 1.42 1.80 2.07 2.32 2.44 2.28 2.23 2.23 2.21 2.16 2.21
0.81 0.65 0.62 0.73 0.60 0.57 0.66 0.55 0.64 0.68 0.74 0.68 0.51 0.70 0.64 0.50 0.55 0.46 0.40 0.39 0.38 0.32 0.25 0.22 0.23 0.26 0.32 0.41 0.49 0.67 0.94 1.24 1.50 1.74 1.93 2.17 2.31 2.31 2.26 2.22 2.21 2.12 2.08 2.07
0.58 0.51 0.54 0.52 0.45 0.46 0.49 0.58 0.71 0.73 0.79 0.84 0.44 0.54 0.66 0.51 0.46 0.42 0.38 0.36 0.32 0.30 0.30 0.30 0.33 0.41 0.50 0.59 0.75 0.93 1.12 1.43 1.60 1.73 1.83 1.99 2.15 2.19 2.18 2.17 2.20 2.19 2.15 2.05
0.53 0.45 0.37 0.34 0.41 0.42 0.48 0.81 1.14 1.18 1.12 0.84 0.41 0.58 0.68 0.50 0.39 0.34 0.35 0.34 0.31 0.35 0.40 0.41 0.52 0.66 0.74 0.80 0.91 1.08 1.17 1.36 1.47 1.52 1.63 1.75 1.81 1.86 1.88 1.88 1.87 1.80 1.76 1.77
0.53 0.53 0.36 0.31 0.38 0.43 0.43 0.68 1.14 1.25 1.08 0.78 0.54 0.81 0.73 0.48 0.38 0.36 0.37 0.33 0.37 0.49 0.58 0.69 0.82 0.92 1.00 1.02 1.00 1.06 1.20 1.24 1.22 1.28 1.28 1.39 1.48 1.54 1.58 1.54 1.54 1.59 1.62 1.65
0.44 0.45 0.30 0.25 0.26 0.35 0.44 0.48 0.55 0.81 0.77 0.79 0.74 0.92 0.84 0.50 0.42 0.41 0.40 0.38 0.45 0.63 0.84 1.07 1.25 1.33 1.42 1.36 1.20 1.08 1.08 1.06 1.04 1.14 1.20 1.24 1.31 1.35 1.35 1.35 1.28 1.39 1.43 1.43
0.36 0.44 0.34 0.25 0.27 0.30 0.37 0.48 0.62 0.94 1.11 1.07 0.95 1.07 1.08 0.72 0.57 0.49 0.52 0.60 0.73 0.95 1.28 1.56 1.79 1.92 1.90 1.70 1.47 1.25 1.07 0.98 0.94 1.00 1.10 1.18 1.21 1.21 1.16 1.17 1.10 1.15 1.25 1.24
0.29 0.43 0.38 0.30 0.32 0.36 0.39 0.56 0.71 0.91 0.94 1.21 1.37 1.35 1.09 0.95 0.82 0.78 0.87 1.05 1.24 1.50 1.70 1.89 2.05 2.12 1.89 1.72 1.45 1.20 1.04 1.03 1.04 1.07 1.11 1.14 1.10 1.08 1.05 1.00 0.94 0.99 1.07 1.07
0.24 0.38 0.42 0.27 0.23 0.28 0.49 0.73 0.94 1.30 1.20 1.11 1.35 1.41 1.02 0.92 0.94 0.98 1.10 1.19 1.33 1.46 1.47 1.56 1.67 1.65 1.62 1.59 1.40 1.21 1.11 1.10 1.14 1.18 1.22 1.17 1.09 1.02 1.00 0.96 0.87 0.85 0.81 0.81
0.36 0.54 0.61 0.51 0.53 0.54 0.63 0.67 0.74 0.91 1.03 1.09 1.37 1.45 0.96 0.86 0.85 0.99 1.17 1.23 1.33 1.35 1.26 1.26 1.30 1.39 1.43 1.40 1.29 1.25 1.21 1.23 1.24 1.22 1.13 1.06 0.99 0.91 0.87 0.77 0.70 0.76 0.75 0.81
0.34 0.56 0.67 0.77 0.71 0.64 0.70 0.68 0.60 0.71 1.02 1.07 1.22 1.21 0.99 0.96 0.90 0.95 1.08 1.17 1.14 1.07 1.00 1.00 1.08 1.17 1.25 1.25 1.23 1.17 1.12 1.16 1.27 1.33 1.25 1.14 1.03 0.94 0.90 0.79 0.70 0.67 0.70 0.78
0.26 0.32 0.32 0.30 0.28 0.38 0.60 0.69 0.66 0.65 0.72 0.95 0.96 0.86 0.81 0.82 0.84 0.80 0.83 0.81 0.73 0.68 0.69 0.73 0.79 0.81 0.78 0.76 0.82 0.86 0.93 1.04 1.20 1.34 1.33 1.20 1.03 0.92 0.86 0.81 0.73 0.70 0.69 0.71
0.19 0.22 0.20 0.20 0.18 0.27 0.41 0.51 0.52 0.50 0.52 0.61 0.68 0.67 0.57 0.54 0.57 0.58 0.61 0.57 0.53 0.48 0.44 0.44 0.46 0.46 0.45 0.42 0.41 0.44 0.53 0.69 0.93 1.19 1.18 0.98 0.82 0.69 0.63 0.66 0.68 0.69 0.66 0.69
0.15 0.19 0.24 0.28 0.22 0.24 0.45 0.45 0.42 0.44 0.37 0.40 0.46 0.45 0.40 0.43 0.49 0.50 0.56 0.57 0.45 0.36 0.34 0.33 0.32 0.32 0.31 0.31 0.31 0.33 0.41 0.53 0.71 0.83 0.82 0.72 0.62 0.59 0.62 0.66 0.61 0.63 0.65 0.65
0.14 0.19 0.26 0.29 0.32 0.56 0.74 0.61 0.51 0.48 0.30 0.25 0.27 0.28 0.31 0.41 0.44 0.45 0.44 0.45 0.44 0.33 0.25 0.24 0.24 0.25 0.29 0.30 0.34 0.38 0.44 0.49 0.53 0.56 0.58 0.54 0.52 0.53 0.57 0.59 0.58 0.65 0.70 0.68
0.18 0.27 0.35 0.40 0.47 0.66 0.69 0.59 0.58 0.58 0.42 0.23 0.21 0.21 0.20 0.20 0.23 0.25 0.26 0.25 0.25 0.21 0.17 0.16 0.15 0.16 0.19 0.19 0.20 0.22 0.25 0.27 0.28 0.27 0.27 0.29 0.30 0.33 0.35 0.37 0.43 0.55 0.62 0.65
0.19 0.26 0.39 0.43 0.53 0.67 0.53 0.33 0.34 0.49 0.62 0.23 0.15 0.15 0.14 0.13 0.19 0.20 0.21 0.21 0.18 0.15 0.16 0.15 0.13 0.14 0.15 0.15 0.15 0.14 0.15 0.16 0.17 0.17 0.17 0.19 0.21 0.21 0.21 0.25 0.30 0.36 0.37 0.44
0.20 0.26 0.33 0.40 0.59 0.78 0.58 0.36 0.32 0.56 0.61 0.21 0.13 0.12 0.12 0.14 0.14 0.14 0.17 0.19 0.16 0.14 0.15 0.16 0.15 0.15 0.16 0.17 0.15 0.14 0.15 0.15 0.18 0.21 0.24 0.23 0.22 0.23 0.24 0.26 0.29 0.31 0.32 0.37
0.23 0.31 0.35 0.49 0.79 0.99 0.75 0.51 0.49 0.42 0.22 0.14 0.10 0.10 0.12 0.12 0.12 0.14 0.16 0.17 0.15 0.14 0.14 0.15 0.16 0.17 0.19 0.17 0.15 0.15 0.16 0.16 0.17 0.21 0.23 0.25 0.25 0.25 0.26 0.28 0.31 0.34 0.35 0.36
0.20 0.24 0.30 0.45 0.69 0.71 0.62 0.48 0.37 0.29 0.18 0.10 0.09 0.10 0.14 0.15 0.14 0.17 0.18 0.16 0.16 0.16 0.14 0.14 0.15 0.14 0.15 0.16 0.15 0.14 0.16 0.18 0.19 0.20 0.22 0.24 0.25 0.25 0.23 0.26 0.31 0.34 0.37 0.38
0.19 0.17 0.21 0.24 0.31 0.32 0.31 0.29 0.21 0.18 0.14 0.10 0.10 0.14 0.18 0.19 0.19 0.17 0.17 0.18 0.17 0.16 0.14 0.13 0.14 0.15 0.16 0.17 0.17 0.18 0.18 0.17 0.18 0.22 0.25 0.26 0.25 0.25 0.25 0.27 0.31 0.34 0.37 0.41
0.18 0.18 0.21 0.22 0.21 0.18 0.18 0.19 0.17 0.13 0.10 0.09 0.11 0.15 0.18 0.19 0.19 0.17 0.17 0.19 0.18 0.15 0.15 0.17 0.18 0.16 0.17 0.19 0.21 0.23 0.24 0.21 0.19 0.20 0.22 0.22 0.24 0.26 0.27 0.28 0.30 0.32 0.34 0.42
0.13 0.17 0.21 0.23 0.18 0.19 0.20 0.17 0.13 0.12 0.10 0.09 0.09 0.12 0.14 0.16 0.17 0.17 0.15 0.17 0.19 0.19 0.17 0.19 0.20 0.20 0.19 0.20 0.22 0.23 0.26 0.27 0.27 0.25 0.23 0.22 0.22 0.25 0.27 0.28 0.29 0.32 0.33 0.38

GEFSCGP_prec_meanprecacc_294.txt.gz
Total_Precipitation_Accumulation
0.86 1.43 1.76 1.63 1.60 1.55 1.36 1.33 1.21 1.02 0.98 1.03 0.93 0.92 0.96 0.95 0.93 0.81 0.70 0.58 0.55 0.53 0.51 0.48 0.45 0.48 0.53 0.57 0.62 0.70 0.76 0.92 1.02 1.06 1.19 1.39 1.55 1.72 1.87 1.94 1.82 1.67 1.65 1.81
0.95 1.26 0.98 0.89 1.04 1.11 1.20 1.23 1.08 0.92 0.79 0.81 0.82 0.84 0.86 0.80 0.80 0.69 0.58 0.50 0.41 0.34 0.34 0.33 0.30 0.33 0.35 0.37 0.41 0.50 0.59 0.65 0.79 0.96 1.21 1.42 1.71 1.78 1.85 1.97 2.02 1.94 1.88 2.04
1.02 0.91 0.64 0.73 0.92 0.97 0.99 1.05 0.96 0.90 0.78 0.72 0.70 0.86 0.82 0.75 0.70 0.61 0.48 0.40 0.32 0.25 0.22 0.18 0.18 0.23 0.29 0.28 0.31 0.40 0.53 0.65 0.87 1.10 1.42 1.70 1.99 2.08 2.12 2.07 2.11 2.16 2.20 2.26
0.95 0.70 0.63 0.76 0.82 0.85 0.97 0.71 0.66 0.68 0.84 0.86 0.72 1.02 0.75 0.62 0.60 0.54 0.46 0.42 0.34 0.25 0.20 0.17 0.17 0.19 0.22 0.26 0.32 0.46 0.66 0.87 1.13 1.45 1.83 2.09 2.34 2.46 2.29 2.25 2.24 2.22 2.18 2.22
0.81 0.65 0.62 0.73 0.61 0.57 0.67 0.56 0.65 0.69 0.75 0.69 0.52 0.71 0.65 0.51 0.56 0.48 0.41 0.40 0.39 0.32 0.25 0.23 0.23 0.26 0.32 0.41 0.50 0.68 0.95 1.26 1.52 1.76 1.96 2.20 2.33 2.33 2.27 2.22 2.23 2.13 2.09 2.08
0.58 0.51 0.54 0.52 0.46 0.46 0.49 0.58 0.72 0.74 0.80 0.85 0.46 0.55 0.67 0.52 0.47 0.43 0.39 0.36 0.32 0.30 0.30 0.30 0.33 0.41 0.51 0.59 0.75 0.94 1.13 1.44 1.62 1.75 1.86 2.02 2.16 2.21 2.19 2.18 2.21 2.20 2.16 2.05
0.53 0.45 0.38 0.34 0.42 0.43 0.49 0.82 1.16 1.19 1.13 0.85 0.41 0.59 0.69 0.51 0.40 0.35 0.35 0.34 0.32 0.36 0.40 0.41 0.52 0.66 0.74 0.80 0.92 1.09 1.18 1.38 1.48 1.54 1.65 1.78 1.84 1.87 1.89 1.89 1.88 1.81 1.77 1.77
0.54 0.53 0.37 0.32 0.39 0.44 0.44 0.69 1.16 1.26 1.09 0.78 0.55 0.82 0.74 0.49 0.40 0.37 0.37 0.34 0.37 0.49 0.59 0.69 0.83 0.92 1.00 1.03 1.01 1.06 1.21 1.25 1.24 1.29 1.29 1.40 1.50 1.55 1.59 1.55 1.55 1.60 1.62 1.65
0.45 0.46 0.31 0.25 0.26 0.35 0.45 0.49 0.56 0.82 0.77 0.80 0.75 0.93 0.85 0.51 0.43 0.43 0.42 0.40 0.47 0.64 0.85 1.08 1.26 1.35 1.43 1.37 1.21 1.09 1.09 1.07 1.06 1.16 1.22 1.25 1.32 1.36 1.37 1.36 1.30 1.40 1.43 1.43
0.36 0.45 0.35 0.26 0.28 0.31 0.37 0.49 0.63 0.96 1.13 1.08 0.96 1.08 1.09 0.74 0.58 0.51 0.55 0.62 0.75 0.96 1.29 1.57 1.82 1.95 1.93 1.73 1.49 1.27 1.09 0.99 0.96 1.03 1.11 1.19 1.21 1.21 1.17 1.19 1.11 1.16 1.26 1.25
0.30 0.44 0.39 0.32 0.34 0.37 0.40 0.57 0.72 0.92 0.96 1.22 1.38 1.37 1.12 0.97 0.83 0.79 0.89 1.08 1.26 1.51 1.73 1.92 2.08 2.17 1.93 1.76 1.50 1.25 1.08 1.06 1.06 1.10 1.12 1.15 1.11 1.09 1.06 1.01 0.96 1.00 1.09 1.08
0.25 0.39 0.43 0.27 0.24 0.29 0.50 0.74 0.96 1.32 1.21 1.12 1.36 1.42 1.04 0.94 0.95 0.99 1.11 1.20 1.34 1.47 1.49 1.60 1.70 1.69 1.67 1.63 1.45 1.26 1.15 1.14 1.17 1.20 1.23 1.18 1.12 1.06 1.03 0.98 0.89 0.87 0.82 0.81
0.36 0.55 0.62 0.52 0.54 0.54 0.64 0.69 0.75 0.93 1.05 1.11 1.39 1.48 0.98 0.88 0.87 1.00 1.17 1.23 1.33 1.36 1.27 1.27 1.31 1.40 1.47 1.45 1.34 1.30 1.26 1.28 1.29 1.25 1.15 1.09 1.03 0.95 0.90 0.79 0.72 0.77 0.76 0.82
0.35 0.57 0.68 0.78 0.72 0.64 0.70 0.69 0.62 0.72 1.04 1.08 1.24 1.23 1.01 0.97 0.92 0.97 1.09 1.18 1.15 1.08 1.01 1.00 1.08 1.18 1.26 1.26 1.25 1.20 1.16 1.21 1.32 1.38 1.28 1.17 1.06 0.97 0.92 0.81 0.71 0.69 0.71 0.79
0.26 0.33 0.32 0.31 0.29 0.38 0.60 0.70 0.67 0.66 0.72 0.96 0.98 0.88 0.83 0.84 0.85 0.82 0.84 0.82 0.74 0.68 0.69 0.74 0.80 0.81 0.79 0.77 0.83 0.87 0.95 1.07 1.23 1.38 1.36 1.23 1.06 0.94 0.89 0.83 0.75 0.72 0.71 0.72
0.20 0.23 0.21 0.21 0.20 0.29 0.44 0.53 0.54 0.51 0.52 0.61 0.69 0.69 0.58 0.55 0.58 0.59 0.62 0.58 0.54 0.48 0.45 0.44 0.46 0.46 0.45 0.42 0.43 0.45 0.54 0.70 0.95 1.21 1.20 1.00 0.83 0.70 0.65 0.68 0.71 0.71 0.69 0.73
0.16 0.21 0.27 0.31 0.26 0.28 0.47 0.47 0.44 0.44 0.37 0.41 0.47 0.47 0.42 0.44 0.50 0.51 0.57 0.59 0.46 0.37 0.34 0.33 0.33 0.32 0.32 0.31 0.31 0.34 0.42 0.54 0.71 0.84 0.83 0.73 0.63 0.60 0.64 0.68 0.63 0.64 0.67 0.68
0.16 0.23 0.31 0.33 0.35 0.58 0.75 0.63 0.52 0.48 0.31 0.26 0.27 0.29 0.32 0.43 0.46 0.46 0.45 0.46 0.45 0.34 0.25 0.24 0.24 0.25 0.29 0.30 0.34 0.39 0.45 0.50 0.54 0.57 0.58 0.54 0.53 0.54 0.58 0.60 0.59 0.66 0.71 0.69
0.20 0.30 0.39 0.43 0.48 0.67 0.70 0.59 0.59 0.58 0.43 0.24 0.22 0.23 0.22 0.23 0.25 0.27 0.27 0.26 0.25 0.21 0.18 0.16 0.15 0.16 0.19 0.19 0.20 0.23 0.25 0.27 0.29 0.28 0.28 0.30 0.30 0.33 0.36 0.37 0.44 0.56 0.63 0.66
0.20 0.28 0.41 0.45 0.55 0.68 0.54 0.34 0.34 0.50 0.62 0.23 0.16 0.16 0.15 0.14 0.21 0.22 0.22 0.22 0.19 0.16 0.17 0.16 0.14 0.14 0.16 0.16 0.16 0.15 0.16 0.17 0.17 0.17 0.17 0.19 0.21 0.21 0.21 0.25 0.31 0.37 0.38 0.45
0.21 0.27 0.34 0.41 0.60 0.79 0.58 0.36 0.32 0.57 0.62 0.21 0.13 0.13 0.13 0.14 0.15 0.15 0.18 0.19 0.17 0.15 0.16 0.18 0.17 0.16 0.16 0.17 0.16 0.15 0.16 0.16 0.18 0.22 0.24 0.23 0.22 0.23 0.24 0.27 0.29 0.32 0.32 0.38
0.24 0.32 0.36 0.50 0.80 0.99 0.75 0.52 0.49 0.43 0.22 0.14 0.10 0.10 0.12 0.13 0.12 0.14 0.16 0.17 0.16 0.15 0.15 0.16 0.17 0.18 0.19 0.18 0.16 0.16 0.17 0.17 0.19 0.22 0.23 0.25 0.25 0.26 0.26 0.28 0.31 0.34 0.36 0.37
0.20 0.24 0.31 0.46 0.70 0.72 0.62 0.49 0.37 0.29 0.18 0.10 0.09 0.11 0.14 0.15 0.15 0.17 0.19 0.17 0.17 0.16 0.14 0.14 0.15 0.15 0.16 0.16 0.15 0.15 0.17 0.19 0.20 0.21 0.22 0.24 0.26 0.25 0.23 0.26 0.31 0.35 0.37 0.39
0.19 0.17 0.21 0.26 0.33 0.33 0.31 0.29 0.21 0.18 0.15 0.10 0.10 0.15 0.18 0.20 0.19 0.18 0.18 0.18 0.17 0.16 0.14 0.13 0.14 0.15 0.17 0.17 0.17 0.18 0.18 0.18 0.18 0.23 0.25 0.26 0.25 0.25 0.25 0.27 0.31 0.35 0.38 0.42
0.19 0.19 0.21 0.23 0.22 0.19 0.19 0.19 0.17 0.13 0.10 0.10 0.11 0.16 0.19 0.20 0.20 0.18 0.18 0.20 0.18 0.16 0.15 0.17 0.18 0.17 0.18 0.19 0.21 0.24 0.24 0.21 0.19 0.21 0.22 0.22 0.24 0.26 0.27 0.29 0.31 0.33 0.35 0.43
0.13 0.17 0.22 0.23 0.18 0.19 0.21 0.18 0.14 0.12 0.10 0.09 0.10 0.12 0.15 0.17 0.19 0.18 0.16 0.17 0.20 0.20 0.19 0.20 0.21 0.21 0.21 0.21 0.23 0.24 0.26 0.27 0.27 0.26 0.23 0.22 0.22 0.25 0.28 0.29 0.29 0.32 0.34 0.40

GEFSCGP_prec_meanprecacc_300.txt.gz
Total_Precipitation_Accumulation
0.87 1.44 1.77 1.64 1.61 1.57 1.37 1.34 1.22 1.04 0.99 1.05 0.96 0.95 0.98 0.97 0.96 0.85 0.72 0.59 0.57 0.55 0.52 0.49 0.46 0.49 0.54 0.58 0.63 0.71 0.77 0.93 1.04 1.09 1.22 1.42 1.58 1.74 1.89 1.97 1.83 1.68 1.66 1.82
0.97 1.28 0.99 0.89 1.04 1.11 1.21 1.24 1.09 0.94 0.79 0.82 0.85 0.88 0.88 0.82 0.82 0.71 0.60 0.52 0.43 0.36 0.36 0.34 0.31 0.34 0.36 0.37 0.42 0.52 0.62 0.68 0.82 0.99 1.24 1.43 1.73 1.79 1.87 2.00 2.04 1.95 1.89 2.05
1.04 0.92 0.65 0.73 0.92 0.98 1.00 1.06 0.97 0.91 0.80 0.73 0.73 0.90 0.84 0.77 0.72 0.62 0.50 0.42 0.33 0.26 0.22 0.18 0.19 0.24 0.29 0.29 0.32 0.42 0.54 0.68 0.91 1.13 1.46 1.74 2.02 2.10 2.15 2.10 2.14 2.17 2.21 2.27
0.96 0.71 0.64 0.77 0.83 0.86 0.99 0.73 0.67 0.68 0.85 0.89 0.75 1.06 0.78 0.64 0.62 0.56 0.47 0.43 0.35 0.26 0.20 0.17 0.18 0.19 0.23 0.27 0.34 0.47 0.67 0.89 1.15 1.48 1.86 2.13 2.38 2.48 2.31 2.27 2.27 2.24 2.19 2.23
0.81 0.65 0.63 0.73 0.61 0.58 0.68 0.56 0.66 0.71 0.76 0.72 0.54 0.74 0.68 0.53 0.59 0.51 0.42 0.41 0.40 0.32 0.25 0.23 0.24 0.26 0.33 0.42 0.51 0.70 0.97 1.27 1.54 1.78 1.98 2.23 2.36 2.36 2.30 2.25 2.25 2.15 2.10 2.08
0.59 0.51 0.54 0.52 0.46 0.47 0.49 0.59 0.73 0.76 0.82 0.88 0.48 0.57 0.69 0.53 0.49 0.47 0.41 0.37 0.33 0.30 0.30 0.30 0.33 0.42 0.51 0.60 0.77 0.96 1.14 1.45 1.64 1.77 1.87 2.03 2.18 2.22 2.21 2.21 2.23 2.21 2.16 2.06
0.53 0.45 0.38 0.34 0.42 0.44 0.49 0.84 1.19 1.22 1.16 0.88 0.42 0.60 0.71 0.52 0.40 0.36 0.37 0.35 0.32 0.36 0.41 0.42 0.53 0.67 0.76 0.81 0.94 1.11 1.19 1.39 1.50 1.55 1.65 1.79 1.85 1.88 1.90 1.90 1.90 1.82 1.77 1.77
0.55 0.54 0.37 0.32 0.40 0.45 0.45 0.70 1.19 1.30 1.12 0.81 0.56 0.84 0.75 0.49 0.40 0.38 0.38 0.34 0.38 0.50 0.60 0.70 0.84 0.93 1.01 1.04 1.02 1.07 1.22 1.25 1.25 1.30 1.30 1.41 1.51 1.57 1.60 1.56 1.56 1.61 1.64 1.66
0.46 0.47 0.31 0.25 0.27 0.36 0.47 0.50 0.57 0.84 0.79 0.83 0.78 0.95 0.87 0.51 0.43 0.43 0.43 0.40 0.48 0.65 0.85 1.09 1.28 1.36 1.44 1.39 1.22 1.10 1.10 1.08 1.07 1.17 1.23 1.26 1.32 1.36 1.37 1.37 1.30 1.41 1.44 1.44
0.37 0.46 0.36 0.26 0.29 0.31 0.39 0.50 0.64 0.98 1.17 1.13 0.99 1.10 1.10 0.74 0.58 0.52 0.55 0.63 0.76 0.97 1.29 1.59 1.85 1.99 1.95 1.74 1.50 1.28 1.10 1.00 0.97 1.03 1.12 1.19 1.21 1.22 1.18 1.19 1.12 1.17 1.27 1.26
0.30 0.46 0.41 0.33 0.35 0.38 0.41 0.58 0.74 0.96 0.99 1.26 1.41 1.39 1.13 0.98 0.83 0.79 0.89 1.08 1.27 1.51 1.73 1.93 2.11 2.21 1.96 1.78 1.52 1.26 1.09 1.07 1.08 1.11 1.14 1.17 1.12 1.09 1.06 1.02 0.97 1.02 1.10 1.10
0.25 0.41 0.46 0.30 0.26 0.31 0.52 0.76 0.98 1.37 1.25 1.15 1.39 1.44 1.05 0.95 0.96 0.99 1.11 1.21 1.34 1.47 1.49 1.61 1.71 1.72 1.72 1.67 1.48 1.28 1.17 1.16 1.20 1.21 1.25 1.20 1.12 1.06 1.04 0.99 0.90 0.88 0.84 0.84
0.36 0.56 0.66 0.57 0.57 0.57 0.66 0.70 0.77 0.95 1.08 1.13 1.42 1.49 0.99 0.88 0.87 1.01 1.18 1.23 1.33 1.36 1.27 1.27 1.32 1.42 1.50 1.49 1.39 1.35 1.30 1.32 1.32 1.28 1.17 1.11 1.05 0.96 0.92 0.82 0.75 0.80 0.79 0.85
0.35 0.58 0.70 0.80 0.74 0.66 0.72 0.70 0.63 0.74 1.07 1.11 1.26 1.25 1.03 0.98 0.92 0.97 1.10 1.18 1.15 1.08 1.01 1.00 1.09 1.19 1.28 1.28 1.28 1.24 1.21 1.26 1.36 1.42 1.32 1.20 1.09 0.99 0.95 0.84 0.75 0.72 0.75 0.83
0.27 0.34 0.33 0.31 0.30 0.39 0.61 0.71 0.68 0.67 0.74 0.98 0.99 0.89 0.85 0.85 0.86 0.82 0.85 0.83 0.74 0.68 0.69 0.74 0.80 0.82 0.80 0.78 0.85 0.89 0.97 1.10 1.26 1.42 1.40 1.27 1.10 0.97 0.91 0.86 0.78 0.76 0.75 0.76
0.20 0.24 0.22 0.22 0.20 0.29 0.44 0.53 0.54 0.52 0.53 0.62 0.69 0.69 0.59 0.56 0.59 0.59 0.63 0.59 0.55 0.49 0.45 0.44 0.46 0.47 0.45 0.43 0.43 0.46 0.56 0.72 0.97 1.24 1.24 1.04 0.87 0.74 0.68 0.70 0.73 0.73 0.71 0.76
0.17 0.22 0.29 0.33 0.27 0.28 0.48 0.48 0.45 0.46 0.39 0.41 0.47 0.47 0.42 0.45 0.51 0.52 0.57 0.59 0.47 0.38 0.35 0.33 0.33 0.32 0.32 0.32 0.32 0.34 0.43 0.55 0.72 0.86 0.85 0.76 0.66 0.62 0.67 0.70 0.65 0.67 0.69 0.70
0.18 0.25 0.33 0.34 0.36 0.60 0.76 0.64 0.53 0.49 0.32 0.27 0.28 0.29 0.33 0.44 0.46 0.47 0.45 0.46 0.46 0.34 0.26 0.25 0.25 0.25 0.29 0.30 0.34 0.39 0.45 0.51 0.55 0.58 0.60 0.56 0.54 0.56 0.60 0.62 0.61 0.67 0.73 0.70
0.21 0.32 0.41 0.45 0.51 0.69 0.71 0.60 0.60 0.59 0.44 0.24 0.22 0.23 0.22 0.23 0.25 0.27 0.28 0.26 0.26 0.22 0.18 0.17 0.17 0.17 0.20 0.19 0.21 0.23 0.26 0.28 0.30 0.29 0.29 0.32 0.33 0.36 0.38 0.39 0.46 0.58 0.65 0.68
0.21 0.28 0.43 0.48 0.58 0.70 0.55 0.34 0.35 0.51 0.63 0.23 0.16 0.16 0.15 0.14 0.21 0.22 0.23 0.22 0.19 0.16 0.18 0.17 0.14 0.15 0.16 0.16 0.16 0.16 0.17 0.18 0.18 0.18 0.18 0.21 0.23 0.23 0.24 0.28 0.33 0.39 0.40 0.47
0.22 0.29 0.36 0.43 0.63 0.81 0.59 0.37 0.32 0.58 0.62 0.22 0.13 0.13 0.13 0.14 0.15 0.15 0.18 0.20 0.17 0.16 0.17 0.18 0.17 0.16 0.17 0.19 0.17 0.16 0.17 0.18 0.20 0.23 0.25 0.24 0.23 0.24 0.25 0.28 0.30 0.32 0.34 0.39
0.25 0.34 0.39 0.53 0.83 1.01 0.76 0.53 0.51 0.44 0.22 0.14 0.10 0.10 0.12 0.13 0.12 0.14 0.16 0.17 0.16 0.15 0.15 0.16 0.17 0.19 0.20 0.19 0.17 0.17 0.17 0.18 0.20 0.22 0.24 0.26 0.26 0.26 0.27 0.29 0.32 0.35 0.37 0.37
0.21 0.25 0.33 0.48 0.72 0.73 0.63 0.49 0.38 0.30 0.19 0.11 0.09 0.11 0.14 0.15 0.15 0.17 0.19 0.17 0.17 0.16 0.14 0.14 0.16 0.15 0.17 0.17 0.16 0.16 0.17 0.19 0.20 0.22 0.24 0.26 0.27 0.27 0.25 0.26 0.31 0.35 0.37 0.39
0.19 0.17 0.22 0.26 0.34 0.33 0.32 0.30 0.22 0.18 0.15 0.11 0.11 0.15 0.18 0.20 0.19 0.18 0.18 0.18 0.17 0.16 0.14 0.13 0.14 0.16 0.17 0.18 0.18 0.19 0.18 0.18 0.19 0.23 0.26 0.28 0.27 0.27 0.27 0.28 0.32 0.35 0.38 0.42
0.19 0.19 0.22 0.24 0.22 0.20 0.19 0.19 0.17 0.13 0.11 0.10 0.12 0.16 0.19 0.20 0.20 0.18 0.18 0.20 0.18 0.16 0.16 0.17 0.19 0.17 0.18 0.20 0.22 0.25 0.25 0.22 0.20 0.22 0.24 0.24 0.25 0.27 0.28 0.30 0.31 0.33 0.35 0.44
0.13 0.17 0.22 0.24 0.18 0.20 0.22 0.19 0.14 0.12 0.10 0.09 0.10 0.12 0.15 0.17 0.19 0.18 0.16 0.18 0.20 0.20 0.20 0.21 0.22 0.21 0.21 0.22 0.24 0.26 0.27 0.28 0.28 0.27 0.25 0.24 0.23 0.26 0.29 0.29 0.30 0.32 0.34 0.40